Regional Weather Roundup
Issued by NWS San Angelo, TX

Home | Current Version | Previous Version | Text Only | Print | Product List | Glossary On
Versions: 1 2 3 4 5 6 7 8 9 10 11 12 13 14 15 16 17 18 19 20 21 22 23 24 25 26 27 28 29 30 31 32 33 34 35 36 37 38 39 40 41 42 43 44 45 46 47 48 49 50
000
ASUS44 KSJT 230610
RWRSJT
WEST CENTRAL TEXAS REGIONAL WEATHER ROUNDUP
NATIONAL WEATHER SERVICE SAN ANGELO TX
100 AM CDT SAT MAY 23 2015

NOTE: "FAIR" INDICATES FEW OR NO CLOUDS BELOW 12,000 FEET WITH NO
SIGNIFICANT WEATHER AND/OR OBSTRUCTIONS TO VISIBILITY.

TXZ049-054-064>066-071>073-076>078-098-099-113-114-127-128-139-140-
154-155-168>170-230700
...LOCATIONS ACROSS WEST CENTRAL TEXAS...

CITY           SKY/WX    TMP DP  RH WIND       PRES   REMARKS
SAN ANGELO     MOCLDY    70  67  90 E6        30.03S
ABILENE        CLOUDY    71  68  90 SE14      30.05S
DYESS AFB      NOT AVBL
JUNCTION       CLOUDY    74  70  87 SE9       30.06R
SWEETWATER     CLOUDY    70  70 100 SE13G21   30.07F
BROWNWOOD      CLOUDY    72  70  94 SE13      30.06F
COLEMAN        CLOUDY    71  70  96 SE8       30.06F
SONORA         CLOUDY    72  70  94 SE6       30.09S
OZONA          FAIR      72  68  88 SE14G21   30.05S
BRADY          CLOUDY    72  72 100 SE14      30.05F
$$

TEXAS PANHANDLE/OKLAHOMA PANHANDLE

CITY           SKY/WX    TMP DP  RH WIND       PRES   REMARKS
AMARILLO       FOG       57  57 100 SE16      30.07F VSB 1/2
BORGER         CLOUDY    59  57  93 SE10      30.07F FOG
CANADIAN       CLOUDY    57  57  98 S12       30.09S FOG
DALHART        MOCLDY    57  54  89 S15       30.05F
DUMAS          CLOUDY    57  56  95 SE14      30.05S
GUYMON         NOT AVBL
HEREFORD       CLOUDY    60  60  99 MISG      30.07S FOG
PAMPA          DRIZZLE   55  55  97 SE17G23   30.08F
PERRYTON       CLOUDY    57  56  95 S20       30.07S
$$

SOUTHERN PANHANDLE/SOUTH PLAINS/ROLLING PLAINS

CITY           SKY/WX    TMP DP  RH WIND       PRES   REMARKS
LUBBOCK        DRZL/FOG  61  61 100 SE14      30.05F VSB 1/4
SNYDER         CLOUDY    67  66  95 SE10      30.04F
CHILDRESS      FOG       58  57  97 SE10      30.08F VSB 1/4
SEMINOLE       CLOUDY    67  65  93 SE9       30.02F
$$

PERMIAN BASIN

CITY           SKY/WX    TMP DP  RH WIND       PRES   REMARKS
MIDLAND        CLOUDY    70  65  84 SE16      29.97F
ODESSA         CLOUDY    70  64  81 SE17      29.98S
WINK           CLOUDY    72  63  73 SE17G25   29.95R
$$

FAR WEST/SOUTHWEST MOUNTAINS/TRANS PECOS

CITY           SKY/WX    TMP DP  RH WIND       PRES   REMARKS
ALPINE         MOCLDY    68  60  75 S17G33    30.08R
DRYDEN           N/A     76  67  73 S12       29.99R
EL PASO        CLOUDY    78  16   9 W24G33    29.94R
FORT STOCKTON  CLOUDY    71  65  81 SE25G36   29.92F
GUADALUPE PASS FOG       60  60 100 NE25      30.05S VSB 1
MARFA          MOCLDY    64  61  88 S5        30.10R
PECOS          MOCLDY    70  65  83 E15       29.91F
$$

DALLAS/FORT WORTH METROPLEX

CITY           SKY/WX    TMP DP  RH WIND       PRES   REMARKS
DFW AIRPORT    CLOUDY    67  66  97 E3        30.08F
FTW MEACHAM    CLOUDY    69  67  93 E6        30.07F
DAL-EXECUTIVE  CLOUDY    70  67  90 SE10      30.08F
GRAND PRAIRIE  MOCLDY    71  69  91 SE6       30.10S
ADDISON        CLOUDY    70  67  90 E7        30.11S
MESQUITE       CLOUDY    70  67  89 E7        30.10F
LANCASTER      PTCLDY    69  65  86 SE7       30.10S
$$

NORTH CENTRAL TEXAS

CITY           SKY/WX    TMP DP  RH WIND       PRES   REMARKS
SHRMAN/DENISON CLOUDY    62  62 100 E7        30.13S FOG
GAINESVILLE    RAIN      62  60  95 E3        30.13F
BRIDGEPORT     CLOUDY    64  64 100 E5        30.10F FOG
DENTON         CLOUDY    65  64  97 NE5       30.09F
WAXAHACHIE     CLOUDY    70  69  96 SE5       30.10F
GRANBURY         N/A     70  68  94 E3        30.08F
$$

WESTERN NORTH TEXAS

CITY           SKY/WX    TMP DP  RH WIND       PRES   REMARKS
WICHITA FALLS  LGT RAIN  60  59  96 E7        30.09F FOG
VERNON         CLOUDY    60  57  88 SE9       30.09F
BRECKENRIDGE   CLOUDY    71  69  95 SE9       30.06S FOG
COMANCHE       CLOUDY    70  70 100 SE9       30.08S FOG
$$

CENTRAL AND SOUTH CENTRAL TEXAS

CITY           SKY/WX    TMP DP  RH WIND       PRES   REMARKS
AUSTIN/BERGSTM CLOUDY    74  72  93 SE8       30.06F
WACO           CLOUDY    72  68  87 SE10      30.07F
HILLSBORO      MOCLDY    70  66  85 E8        30.09S
TEMPLE         CLOUDY    72  64  78 SE14G22   30.07F
KILLEEN-GRAY   CLOUDY    72  70  94 SE14      30.07F
FORT HOOD      CLOUDY    71  69  95 SE10G20   30.06F
GEORGETOWN     CLOUDY    73  72  94 SE9       30.07S
LAGO VISTA     CLOUDY    73  71  92 SE7       30.09S
SAN MARCOS     CLOUDY    73  70  88 SE8       30.08S
NEW BRAUNFELS  CLOUDY    75  72  90 SE7       30.05S
RANDOLPH AFB   MOCLDY    75  73  93 E8        30.06S
SAN ANTONIO    CLOUDY    77  73  87 SE12      30.07R
STINSON        CLOUDY    77  73  87 SE10      30.05R
PLEASANTON     NOT AVBL
LA GRANGE      CLOUDY    75  73  93 SE6       30.06S
GIDDINGS       CLOUDY    73  70  92 SE6       30.12R FOG
$$

EAST TEXAS

CITY           SKY/WX    TMP DP  RH WIND       PRES   REMARKS
PARIS          MOCLDY    64  57  77 E10       30.14F
CLARKSVILLE    NOT AVBL
TYLER          CLEAR     70  64  81 SE13      30.11F
LONGVIEW       CLOUDY    70  64  81 SE6       30.13F
PALESTINE      PTCLDY    70  67  90 E8        30.12F FOG
NACOGDOCHES      N/A     68  64  88 E8        30.13F
$$

TEXAS HILL COUNTRY AND EDWARDS PLATEAU

CITY           SKY/WX    TMP DP  RH WIND       PRES   REMARKS
LLANO          CLOUDY    73  73 100 SE8       30.09S
HORSESHOE BAY  CLOUDY    74  71  91 SE7       30.07S
KERRVILLE      CLOUDY    73  71  91 SE12G18   30.08S
FREDERICKSBRG  LGT RAIN  72  69  91 SE7       30.08S
ROCKSPRINGS    CLOUDY    73  70  88 SE15G21   30.09F
HONDO          CLOUDY    76  73  91 SE13      30.07S
UVALDE         CLOUDY    76  73  91 SE9       30.05S
DEL RIO        CLOUDY    77  71  82 SE8       30.01R
$$

SOUTHEAST TEXAS

CITY           SKY/WX    TMP DP  RH WIND       PRES   REMARKS
COLLEGE STN    CLEAR     72  68  87 SE10      30.08F
CALDWELL       CLEAR     70  70 100 MISG      30.11F
CROCKETT       NOT AVBL
BRENHAM        PTCLDY    73  71  94 E7        30.09F
HUNTSVILLE     CLEAR     71  68  90 E3        30.10F
CONROE         MOCLDY    71  69  93 E3        30.10F
HOUSTON BUSH   PTCLDY    73  72  96 SE8       30.09S
HOUSTON HOBBY  MOCLDY    76  74  93 SE6       30.08S
PERLAND        PTCLDY    77  74  90 E7        30.10F
WHARTON        CLOUDY    75  73  96 E6        30.08S FOG
$$

THE UPPER TEXAS COAST

CITY           SKY/WX    TMP DP  RH WIND       PRES   REMARKS
ORANGE         PTCLDY    71  68  90 E6        30.14F
PORT ARTHUR    PTCLDY    74  70  87 E6        30.11F
GALVESTON      MOCLDY    79  76  90 E14       30.10F
ANGLETON       MOCLDY    74  74 100 SE6       30.08S
BAY CITY       CLOUDY    76  76 100 E6        30.07F
$$

TEXAS COASTAL BEND, RIO GRANDE PLAINS DEEP SOUTH TEXAS

CITY           SKY/WX    TMP DP  RH WIND       PRES   REMARKS
VICTORIA       MOCLDY    74  74 100 E7        30.06S FOG
BEEVILLE       FAIR      76  76 100 E6        30.05S
ROCKPORT       MOCLDY    80  75  84 SE14      30.03F
PORT ARANSAS   MOCLDY    80  76  89 SE13G21   30.04S
PORT LAVACA    MOCLDY    77  75  94 SE8       30.06S
CORPUS CHRISTI MOCLDY    79  75  87 SE9       30.04R
KINGSVILLE NAS MOCLDY    79  78  97 SE6       30.03S
COTULLA        CLOUDY    78  74  87 SE12      30.02S
LAREDO         CLOUDY    79  73  81 SE13      30.02F
BROWNSVILLE    PTCLDY    79  76  90 SE10      30.03S
PORT ISABEL    MOCLDY    80  76  87 SE10      30.03S
HEBBRONVILLE     N/A     76  73  92 SE12      30.05S
MCALLEN        MOCLDY    79  75  87 SE9       30.03S
WESLACO        PTCLDY    76  73  90 SE8       30.02F
FALFURRIAS     MOCLDY    77  75  92 SE3       30.03S
EDINBURG       MOCLDY    78  74  86 SE6       30.03F
$$


USA.gov is the U.S. government's official web portal to all federal, state and local government web resources and services.